Location: Ferintosh
(52.7647°N, 112.9692°W)
Time: 18:22:41
(UTC+00:00)

A-11 Canister half - Pass Details

Date: 28 May 2024
Orbit: 1515 x 1685 km, 47.2° (Epoch: 12 June)

Event Time Altitude Azimuth Distance (km) Brightness Sun altitude
Rises 14:57:05 0° 285° (WNW) 4,691 11.0 30.2°
Reaches altitude 10° 15:00:57 10° 272° (W) 3,691 10.6 30.8°
Maximum altitude 15:07:33 22° 226° (SW) 2,818 10.3 31.8°
Drops below altitude 10° 15:14:08 10° 179° (S) 3,671 11.2 32.8°
Sets 15:18:00 0° 165° (SSE) 4,660 11.8 33.4°
